Regional Weather Roundup
Issued by NWS

Home | Current Version | Previous Version | Graphics & Text | Print | Product List | Glossary On
Versions: 1 2 3 4 5 6 7 8 9 10 11 12 13 14 15 16 17 18 19 20 21 22 23 24 25 26 27 28 29 30 31 32 33 34 35 36 37 38 39 40 41 42 43 44 45 46 47 48 49 50
000
ASUS43 KMKX 272021
RWRWI

WISCONSIN REGIONAL WEATHER ROUNDUP
NATIONAL WEATHER SERVICE MILWAUKEE/SULLIVAN WI
200 PM CST FRI FEB 27 2015

NOTE: "FAIR" INDICATES FEW OR NO CLOUDS BELOW 12,000 FEET WITH NO
SIGNIFICANT WEATHER AND/OR OBSTRUCTIONS TO VISIBILITY.

WIZ001-002-006>008-014>016-023>028-272100-
NORTHWEST WISCONSIN

CITY           SKY/WX    TMP DP  RH WIND       PRES   REMARKS
SUPERIOR ARPT  SUNNY     18  -4  38 SW13      30.45F WCI   5
ASHLAND        SUNNY     17  -6  35 SW12      30.43F WCI   4
HAYWARD        SUNNY     14  -8  37 VRB7      30.43F WCI   4
SIREN          SUNNY     14  -5  42 SW10      30.48F WCI   2
CUMBERLAND     SUNNY     12  -6  44 W10       30.46F WCI  -1
RICE LAKE      SUNNY     13  -5  45 SW8       30.49F WCI   1
CHETEK         SUNNY     13  -4  46 S8        30.49S WCI   1
LADYSMITH      SUNNY     14  -5  41 W8        30.46F WCI   3
EAU CLAIRE     SUNNY     11  -2  56 SW12      30.52F WCI  -3
MENOMONIE      SUNNY     15  -1  51 W8        30.52F WCI   3
NEW RICHMOND   SUNNY     15  -2  47 W8        30.50F WCI   4
OSCEOLA        SUNNY     17  -1  46 W6        30.53F WCI   8
$$

WIZ003>005-009-010-017-018-272100-
NORTH CENTRAL WISCONSIN

CITY           SKY/WX    TMP DP  RH WIND       PRES   REMARKS
MANITOWISH WTR SUNNY     14  -6  41 W6        30.35S WCI   5
ARBOR VITAE    SUNNY     17  -3  42 W8        30.35S WCI   6
WOODRUFF       SUNNY     17  -3  42 W8        30.35S WCI   6
RHINELANDER    SUNNY     15  -4  42 W10       30.36F WCI   2
EAGLE RIVER    SUNNY     15  -7  36 SW10      30.34S WCI   2
LAND O LAKES   SUNNY     18  -6  33 W6        30.34S WCI  10
PHILLIPS       SUNNY     14  -6  41 W9        30.38F WCI   2
TOMAHAWK       SUNNY     16  -6  37 W5        30.39F WCI   8
MEDFORD        SUNNY      9  -5  53 SW9       30.43S WCI  -4
MERRILL        SUNNY     14  -4  44 SW10      30.42S WCI   1
$$

WIZ029-030-035-036-043>047-272100-
CENTRAL WISCONSIN

CITY           SKY/WX    TMP DP  RH WIND       PRES   REMARKS
WAUSAU         SUNNY     11  -5  48 W14       30.44F WCI  -5
MOSINEE        SUNNY     10  -2  56 W13       30.47S WCI  -5
MARSHFIELD     SUNNY     13  -5  44 W8        30.46F WCI   2
STEVENS POINT  SUNNY     11  -8  41 W12       30.48F WCI  -3
WAUPACA        SUNNY     20  -4  34 W9G16     30.50S WCI   9
WAUTOMA        SUNNY     18  -3  39 W9        30.51F WCI   7
WISC RAPIDS    SUNNY     15  -7  37 W8G17     30.50F WCI   4
CAMP DOUGLAS   SUNNY     16  -4  41 W8        30.52F WCI   5
$$

WIZ011>013-019>022-031-037>040-048>050-272100-
NORTHEAST WISCONSIN

CITY           SKY/WX    TMP DP  RH WIND       PRES   REMARKS
ANTIGO         SUNNY     11  -5  48 SW9       30.39F WCI  -1
SHAWANO        SUNNY     19  -4  35 W10       30.47F WCI   7
OCONTO         SUNNY     17  -1  43 W13G18    30.47S WCI   4
STURGEON BAY   SUNNY     16   0  48 SW12      30.48F WCI   3
GREEN BAY      SUNNY     17   0  47 W12       30.49F WCI   4
MANITOWOC      SUNNY     18   1  47 W14       30.51F WCI   4
APPLETON       SUNNY     16  -2  45 W12       30.49F WCI   3
CLINTONVILLE   SUNNY     18  -4  38 W10       30.48S WCI   6
OSHKOSH        SUNNY     16  -1  47 SW9       30.50F WCI   4
$$

WIZ032>034-041-042-053>061-272100-
SOUTHWEST WISCONSIN

CITY           SKY/WX    TMP DP  RH WIND       PRES   REMARKS
LA CROSSE      SUNNY     15  -5  40 W7        30.57F WCI   5
SPARTA         SUNNY     14  -6  41 W9        30.55S WCI   2
VIROQUA        SUNNY     13  -4  46 SW7       30.50F WCI   2
BOSCOBEL       SUNNY     15  -5  40 SW7       30.58F WCI   5
PRAIRIE DU CHI SUNNY     11  -5  47 W8        30.60F WCI   0
PLATTEVILLE    SUNNY     12  -3  51 SW7       30.56S WCI   1
$$

WIZ056-057-062-063-064-067-068-272100-
SOUTH CENTRAL WISCONSIN

CITY           SKY/WX    TMP DP  RH WIND       PRES   REMARKS
REEDSBURG      SUNNY     14  -3  45 W9        30.52F WCI   2
BARABOO/DELLS  SUNNY     14  -5  42 W12       30.52F WCI   0
LONE ROCK      SUNNY     14  -5  42 W7        30.56F WCI   4
MINERAL POINT  SUNNY     12  -6  44 W9        30.53F WCI   0
MADISON        SUNNY     14  -5  42 SW7       30.54F WCI   4
MIDDLETON      SUNNY     18  -5  35 SW5       30.54S WCI  11
WATERTOWN      SUNNY     16  -2  45 SW9       30.53F WCI   4
MONROE         SUNNY     14  -2  48 W12       30.54S WCI   0
JANESVILLE     SUNNY     14  -6  41 W7        30.56F WCI   4
$$

WIZ051-052-058>065-066-070>072-272100-
SOUTHEAST WISCONSIN

CITY           SKY/WX    TMP DP  RH WIND       PRES   REMARKS
MILWAUKEE      SUNNY     17  -7  34 W10       30.55F WCI   5
WAUKESHA       SUNNY     12  -6  44 SW9       30.54F WCI   0
MILWAUKEE/TIMM SUNNY     18  -6  35 W8        30.55F WCI   7
RACINE         SUNNY     14  -5  42 VRB7      30.57F WCI   4
BURLINGTON     SUNNY     13  -5  45 W9        30.56S WCI   0
KENOSHA        SUNNY     14  -3  47 W12       30.56F WCI   0
FOND DU LAC    SUNNY     16  -3  43 SW14      30.51F WCI   2
SHEBOYGAN      SUNNY     16  -1  47 W13       30.51F WCI   2
WEST BEND      SUNNY     18  -4  38 SW10      30.51F WCI   6
JUNEAU         SUNNY     14  -2  47 SW12      30.53F WCI   1
$$

LSZ147-162-272100-
LAKE SUPERIOR

STATION/POSITION TIME  TEMP    WIND        PRES    WAVE
                       AIR SEA DIR/SP/G            HT/PER
                 (UTC) (F)     (DEG/KT/KT) (MB)    (FT/S)
DEVILS ISLAND    2000   12     230/ 19/ 21 1031.5F
PORT WING        1940   15     270/ 10/ 14 1030.8F
SAXON HARBOR     1940   17     210/  6/ 10 1030.5F
$$

LMZ867-665-643>646-272100-
LAKE MICHIGAN

STATION/POSITION TIME  TEMP    WIND        PRES    WAVE
                       AIR SEA DIR/SP/G            HT/PER
                 (UTC) (F)     (DEG/KT/KT) (MB)    (FT/S)
NORTHPORT PIER   1900   14     230/  5/ 12 1031.5
SISTER BAY       1913          260/ 12/ 14   N/A
KEWAUNEE LAKESHO 1900   14     230/ 12/ 15 1031.7F
SHEBOYGAN LAKESH 2000   15     240/ 11/ 13 1035.3F
PORT WASHINGTON  1940   17     240/  7/ 15 1034.5F
MILWAUKEE LAKESH 2000   16     250/ 10/ 15   N/A
KENOSHA   LAKESH 2000   15     300/  7/ 12 1035.2S
$$

TC  - TEMPERATURE IN CELSIUS
VSB - VISIBILITY IN STATUTE MILES
WCI - WIND CHILL INDEX
HX  - HEAT INDEX




USA.gov is the U.S. government's official web portal to all federal, state and local government web resources and services.